Time,TemperatureF,DewpointF,PressureIn,WindDirection,WindDirectionDegrees,WindSpeedMPH,WindSpeedGustMPH,Humidity,HourlyPrecipIn,Conditions,Clouds,dailyrainin,SoftwareType,DateUTC
2013-05-31 00:06:00,74.1,73.8,29.88,South,180,3.2,-999.0,99,-99.99,,,0.00,Acu-Link.com,2013-05-31 05:06:00,
2013-05-31 00:21:00,73.6,73.3,29.87,NNE,22,1.1,-999.0,99,-99.99,,,0.00,Acu-Link.com,2013-05-31 05:21:00,
2013-05-31 00:36:00,73.6,73.3,29.86,South,180,1.7,-999.0,99,-99.99,,,0.00,Acu-Link.com,2013-05-31 05:36:00,
2013-05-31 00:51:00,72.5,72.2,29.85,SSE,157,2.2,-999.0,99,-99.99,,,0.01,Acu-Link.com,2013-05-31 05:51:00,
2013-05-31 01:07:00,71.4,71.1,29.86,South,180,1.7,-999.0,99,-99.99,,,0.02,Acu-Link.com,2013-05-31 06:07:00,
2013-05-31 01:22:00,71.1,70.8,29.86,SSW,202,1.7,-999.0,99,-99.99,,,0.08,Acu-Link.com,2013-05-31 06:22:00,
2013-05-31 01:37:00,70.9,70.6,29.86,SSE,157,2.2,-999.0,99,-99.99,,,0.08,Acu-Link.com,2013-05-31 06:37:00,
2013-05-31 01:52:00,70.9,70.6,29.84,SSE,157,0.0,-999.0,99,-99.99,,,0.09,Acu-Link.com,2013-05-31 06:52:00,
2013-05-31 02:07:00,70.9,70.6,29.84,SSW,202,1.7,-999.0,99,-99.99,,,0.12,Acu-Link.com,2013-05-31 07:07:00,
2013-05-31 02:22:00,70.7,70.4,29.85,ENE,67,1.1,-999.0,99,-99.99,,,0.17,Acu-Link.com,2013-05-31 07:22:00,
2013-05-31 02:37:00,70.9,70.0,29.85,West,270,4.2,-999.0,97,-99.99,,,0.29,Acu-Link.com,2013-05-31 07:37:00,
2013-05-31 02:52:00,71.1,67.0,29.84,South,180,4.2,-999.0,87,-99.99,,,0.63,Acu-Link.com,2013-05-31 07:52:00,
2013-05-31 03:09:00,71.2,67.5,29.85,SSW,202,1.7,-999.0,88,-99.99,,,0.64,Acu-Link.com,2013-05-31 08:09:00,
2013-05-31 03:25:00,71.2,67.5,29.84,SSW,202,1.1,-999.0,88,-99.99,,,0.64,Acu-Link.com,2013-05-31 08:25:00,
2013-05-31 03:41:00,71.1,67.0,29.85,SW,225,3.7,-999.0,87,-99.99,,,0.64,Acu-Link.com,2013-05-31 08:41:00,
2013-05-31 03:56:00,71.1,66.0,29.85,SSW,202,1.7,-999.0,84,-99.99,,,0.64,Acu-Link.com,2013-05-31 08:56:00,
2013-05-31 04:11:00,71.2,65.8,29.85,SSW,202,1.7,-999.0,83,-99.99,,,0.64,Acu-Link.com,2013-05-31 09:11:00,
2013-05-31 04:26:00,71.4,65.6,29.84,SSW,202,5.8,-999.0,82,-99.99,,,0.64,Acu-Link.com,2013-05-31 09:26:00,
2013-05-31 04:41:00,71.4,66.0,29.85,WSW,247,4.7,-999.0,83,-99.99,,,0.65,Acu-Link.com,2013-05-31 09:41:00,
2013-05-31 04:56:00,71.6,67.9,29.85,SSE,157,4.2,-999.0,88,-99.99,,,0.65,Acu-Link.com,2013-05-31 09:56:00,
2013-05-31 05:11:00,71.6,71.3,29.85,WSW,247,5.8,-999.0,99,-99.99,,,0.65,Acu-Link.com,2013-05-31 10:11:00,
2013-05-31 05:26:00,71.4,71.1,29.86,SW,225,8.9,-999.0,99,-99.99,,,0.67,Acu-Link.com,2013-05-31 10:26:00,
2013-05-31 05:42:00,69.4,69.1,29.87,WSW,247,5.3,-999.0,99,-99.99,,,0.75,Acu-Link.com,2013-05-31 10:42:00,
2013-05-31 05:57:00,68.2,67.9,29.87,SSW,202,2.2,-999.0,99,-99.99,,,0.78,Acu-Link.com,2013-05-31 10:57:00,
2013-05-31 06:12:00,67.6,67.3,29.86,ESE,112,1.1,-999.0,99,-99.99,,,0.81,Acu-Link.com,2013-05-31 11:12:00,
2013-05-31 06:27:00,67.5,67.2,29.85,WSW,247,0.0,-999.0,99,-99.99,,,0.82,Acu-Link.com,2013-05-31 11:27:00,
2013-05-31 06:42:00,67.3,66.1,29.84,ENE,67,0.0,-999.0,96,-99.99,,,0.83,Acu-Link.com,2013-05-31 11:42:00,
2013-05-31 06:57:00,67.5,64.5,29.84,SSW,202,0.0,-999.0,90,-99.99,,,0.83,Acu-Link.com,2013-05-31 11:57:00,
2013-05-31 07:12:00,68.2,63.5,29.85,SSW,202,0.0,-999.0,85,-99.99,,,0.83,Acu-Link.com,2013-05-31 12:12:00,
2013-05-31 07:27:00,69.1,64.4,29.83,SSW,202,1.7,-999.0,85,-99.99,,,0.83,Acu-Link.com,2013-05-31 12:27:00,
2013-05-31 07:42:00,69.6,64.9,29.85,South,180,3.2,-999.0,85,-99.99,,,0.83,Acu-Link.com,2013-05-31 12:42:00,
2013-05-31 07:58:00,69.6,67.5,29.84,SSE,157,1.1,-999.0,93,-99.99,,,0.84,Acu-Link.com,2013-05-31 12:58:00,
2013-05-31 08:13:00,69.4,69.1,29.85,South,180,4.2,-999.0,99,-99.99,,,0.84,Acu-Link.com,2013-05-31 13:13:00,
2013-05-31 08:28:00,69.4,69.1,29.85,WSW,247,3.2,-999.0,99,-99.99,,,0.84,Acu-Link.com,2013-05-31 13:28:00,
2013-05-31 08:43:00,69.4,69.1,29.85,ENE,67,1.7,-999.0,99,-99.99,,,0.84,Acu-Link.com,2013-05-31 13:43:00,
2013-05-31 08:58:00,69.6,69.3,29.84,SE,135,3.7,-999.0,99,-99.99,,,0.84,Acu-Link.com,2013-05-31 13:58:00,
2013-05-31 09:13:00,69.8,69.5,29.85,SSW,202,3.2,-999.0,99,-99.99,,,0.84,Acu-Link.com,2013-05-31 14:13:00,
2013-05-31 09:28:00,70.2,69.9,29.83,SSW,202,2.2,-999.0,99,-99.99,,,0.84,Acu-Link.com,2013-05-31 14:28:00,
2013-05-31 09:43:00,71.1,70.8,29.84,SE,135,1.1,-999.0,99,-99.99,,,0.84,Acu-Link.com,2013-05-31 14:43:00,
2013-05-31 09:58:00,72.7,72.4,29.85,SSW,202,2.2,-999.0,99,-99.99,,,0.84,Acu-Link.com,2013-05-31 14:58:00,
2013-05-31 10:14:00,73.6,73.3,29.85,NW,315,1.7,-999.0,99,-99.99,,,0.84,Acu-Link.com,2013-05-31 15:14:00,
2013-05-31 10:29:00,74.7,74.4,29.85,ESE,112,4.2,-999.0,99,-99.99,,,0.84,Acu-Link.com,2013-05-31 15:29:00,
2013-05-31 10:44:00,75.6,75.3,29.85,SW,225,5.3,-999.0,99,-99.99,,,0.84,Acu-Link.com,2013-05-31 15:44:00,
2013-05-31 10:59:00,76.8,76.5,29.85,NNE,22,4.2,-999.0,99,-99.99,,,0.84,Acu-Link.com,2013-05-31 15:59:00,
2013-05-31 11:14:00,79.5,79.2,29.86,West,270,2.7,-999.0,99,-99.99,,,0.84,Acu-Link.com,2013-05-31 16:14:00,
2013-05-31 11:29:00,80.4,80.1,29.85,SSE,157,3.7,-999.0,99,-99.99,,,0.84,Acu-Link.com,2013-05-31 16:29:00,
2013-05-31 11:44:00,82.0,81.7,29.85,SW,225,3.7,-999.0,99,-99.99,,,0.84,Acu-Link.com,2013-05-31 16:44:00,
2013-05-31 11:59:00,84.0,80.4,29.85,SSE,157,2.2,-999.0,89,-99.99,,,0.84,Acu-Link.com,2013-05-31 16:59:00,
2013-05-31 12:14:00,83.3,79.7,29.85,SSE,157,3.2,-999.0,89,-99.99,,,0.84,Acu-Link.com,2013-05-31 17:14:00,
2013-05-31 12:30:00,84.2,80.9,29.85,SSE,157,4.7,-999.0,90,-99.99,,,0.84,Acu-Link.com,2013-05-31 17:30:00,
2013-05-31 12:45:00,86.5,80.3,29.85,SSE,157,3.2,-999.0,82,-99.99,,,0.84,Acu-Link.com,2013-05-31 17:45:00,
2013-05-31 13:00:00,86.5,80.0,29.85,SW,225,5.3,-999.0,81,-99.99,,,0.84,Acu-Link.com,2013-05-31 18:00:00,
2013-05-31 13:15:00,83.3,82.4,29.85,South,180,4.2,-999.0,97,-99.99,,,0.84,Acu-Link.com,2013-05-31 18:15:00,
2013-05-31 13:30:00,83.3,82.0,29.85,SSE,157,3.7,-999.0,96,-99.99,,,0.84,Acu-Link.com,2013-05-31 18:30:00,
2013-05-31 13:45:00,85.1,82.2,29.84,South,180,3.7,-999.0,91,-99.99,,,0.84,Acu-Link.com,2013-05-31 18:45:00,
2013-05-31 14:00:00,83.5,83.2,29.84,SW,225,3.7,-999.0,99,-99.99,,,0.84,Acu-Link.com,2013-05-31 19:00:00,
2013-05-31 14:15:00,85.3,83.0,29.83,WNW,292,7.8,-999.0,93,-99.99,,,0.84,Acu-Link.com,2013-05-31 19:15:00,
2013-05-31 14:30:00,84.4,82.8,29.83,SSW,202,8.3,-999.0,95,-99.99,,,0.84,Acu-Link.com,2013-05-31 19:30:00,
2013-05-31 14:46:00,85.1,83.5,29.83,SSE,157,3.7,-999.0,95,-99.99,,,0.84,Acu-Link.com,2013-05-31 19:46:00,
2013-05-31 15:01:00,83.7,82.1,29.82,East,90,5.8,-999.0,95,-99.99,,,0.84,Acu-Link.com,2013-05-31 20:01:00,
2013-05-31 15:16:00,82.2,81.9,29.82,SSW,202,5.3,-999.0,99,-99.99,,,0.84,Acu-Link.com,2013-05-31 20:16:00,
2013-05-31 15:31:00,81.0,80.7,29.81,SE,135,4.2,-999.0,99,-99.99,,,0.84,Acu-Link.com,2013-05-31 20:31:00,
2013-05-31 15:46:00,81.9,81.6,29.81,South,180,6.3,-999.0,99,-99.99,,,0.84,Acu-Link.com,2013-05-31 20:46:00,
2013-05-31 16:01:00,81.5,81.2,29.81,SSE,157,4.2,-999.0,99,-99.99,,,0.84,Acu-Link.com,2013-05-31 21:01:00,
2013-05-31 16:16:00,81.7,81.4,29.81,SSE,157,5.8,-999.0,99,-99.99,,,0.84,Acu-Link.com,2013-05-31 21:16:00,
2013-05-31 16:31:00,81.7,81.4,29.81,SW,225,4.2,-999.0,99,-99.99,,,0.84,Acu-Link.com,2013-05-31 21:31:00,
2013-05-31 16:46:00,82.0,81.7,29.82,SSE,157,4.2,-999.0,99,-99.99,,,0.84,Acu-Link.com,2013-05-31 21:46:00,
2013-05-31 17:02:00,81.7,81.4,29.80,South,180,3.2,-999.0,99,-99.99,,,0.84,Acu-Link.com,2013-05-31 22:02:00,
2013-05-31 17:17:00,81.5,81.2,29.80,NE,45,3.7,-999.0,99,-99.99,,,0.84,Acu-Link.com,2013-05-31 22:17:00,
2013-05-31 17:32:00,81.5,81.2,29.80,SSE,157,4.2,-999.0,99,-99.99,,,0.84,Acu-Link.com,2013-05-31 22:32:00,
2013-05-31 17:47:00,81.7,81.4,29.79,SSE,157,1.7,-999.0,99,-99.99,,,0.84,Acu-Link.com,2013-05-31 22:47:00,
2013-05-31 18:02:00,81.5,81.2,29.78,East,90,2.2,-999.0,99,-99.99,,,0.84,Acu-Link.com,2013-05-31 23:02:00,
2013-05-31 18:17:00,81.5,81.2,29.77,South,180,3.7,-999.0,99,-99.99,,,0.84,Acu-Link.com,2013-05-31 23:17:00,
2013-05-31 18:32:00,81.7,81.4,29.78,South,180,4.2,-999.0,99,-99.99,,,0.84,Acu-Link.com,2013-05-31 23:32:00,
2013-05-31 18:47:00,80.6,80.3,29.77,SSE,157,2.7,-999.0,99,-99.99,,,0.84,Acu-Link.com,2013-05-31 23:47:00,
2013-05-31 19:02:00,80.2,79.9,29.77,South,180,1.7,-999.0,99,-99.99,,,0.84,Acu-Link.com,2013-06-01 00:02:00,
2013-05-31 19:18:00,80.2,79.9,29.77,SSW,202,2.2,-999.0,99,-99.99,,,0.84,Acu-Link.com,2013-06-01 00:18:00,
2013-05-31 19:33:00,79.5,79.2,29.75,SSW,202,3.2,-999.0,99,-99.99,,,0.84,Acu-Link.com,2013-06-01 00:33:00,
2013-05-31 19:48:00,79.0,78.7,29.74,SE,135,6.3,-999.0,99,-99.99,,,0.84,Acu-Link.com,2013-06-01 00:48:00,
2013-05-31 20:03:00,78.6,78.3,29.76,SSE,157,2.2,-999.0,99,-99.99,,,0.84,Acu-Link.com,2013-06-01 01:03:00,
2013-05-31 20:18:00,77.9,77.6,29.75,SE,135,2.7,-999.0,99,-99.99,,,0.84,Acu-Link.com,2013-06-01 01:18:00,
2013-05-31 20:33:00,77.7,77.4,29.76,SSE,157,1.1,-999.0,99,-99.99,,,0.84,Acu-Link.com,2013-06-01 01:33:00,
2013-05-31 20:48:00,77.5,77.2,29.76,SSE,157,1.1,-999.0,99,-99.99,,,0.84,Acu-Link.com,2013-06-01 01:48:00,
2013-05-31 21:03:00,77.7,77.4,29.76,SE,135,2.7,-999.0,99,-99.99,,,0.84,Acu-Link.com,2013-06-01 02:03:00,
2013-05-31 21:18:00,78.1,77.8,29.77,ENE,67,2.2,-999.0,99,-99.99,,,0.84,Acu-Link.com,2013-06-01 02:18:00,
2013-05-31 21:33:00,78.1,77.8,29.78,SSW,202,1.7,-999.0,99,-99.99,,,0.84,Acu-Link.com,2013-06-01 02:33:00,
2013-05-31 21:49:00,77.9,77.6,29.79,SSE,157,3.2,-999.0,99,-99.99,,,0.84,Acu-Link.com,2013-06-01 02:49:00,
2013-05-31 22:04:00,77.9,77.6,29.80,SSE,157,2.7,-999.0,99,-99.99,,,0.84,Acu-Link.com,2013-06-01 03:04:00,
2013-05-31 22:19:00,77.9,77.6,29.80,SE,135,2.7,-999.0,99,-99.99,,,0.84,Acu-Link.com,2013-06-01 03:19:00,
2013-05-31 22:34:00,77.9,77.6,29.79,SSE,157,2.7,-999.0,99,-99.99,,,0.84,Acu-Link.com,2013-06-01 03:34:00,
2013-05-31 22:49:00,77.9,77.6,29.79,SSE,157,2.2,-999.0,99,-99.99,,,0.84,Acu-Link.com,2013-06-01 03:49:00,
2013-05-31 23:04:00,78.1,77.8,29.78,SE,135,1.7,-999.0,99,-99.99,,,0.84,Acu-Link.com,2013-06-01 04:04:00,
2013-05-31 23:19:00,78.4,78.1,29.79,SSE,157,0.0,-999.0,99,-99.99,,,0.84,Acu-Link.com,2013-06-01 04:19:00,
2013-05-31 23:34:00,78.4,78.1,29.79,SSE,157,2.2,-999.0,99,-99.99,,,0.84,Acu-Link.com,2013-06-01 04:34:00,
2013-05-31 23:49:00,78.6,78.3,29.79,SSE,157,2.7,-999.0,99,-99.99,,,0.84,Acu-Link.com,2013-06-01 04:49:00,